Oconee Lake Weather Center

Moon Phase Calendar



Oconee Lake Water Level
Online Cameras

 


      

Current Conditions in Greensboro
1/17/2022 5:45:20 AM

35°F
Feels Like 28
Clouds
Humidity
81%
Pressure
29.74"
Wind
9.2 mph (W)
Dew Point
30°F
UV Index
0/10 (Low)
Visibility
6 mi

Hourly Forecast

Date & Time Mon, Jan 17
5:00 AM
Mon, Jan 17
6:00 AM
Mon, Jan 17
7:00 AM
Mon, Jan 17
8:00 AM
Mon, Jan 17
9:00 AM
Mon, Jan 17
10:00 AM
Mon, Jan 17
11:00 AM
Mon, Jan 17
12:00 PM
Mon, Jan 17
1:00 PM
Mon, Jan 17
2:00 PM
Mon, Jan 17
3:00 PM
Mon, Jan 17
4:00 PM
Mon, Jan 17
5:00 PM
Mon, Jan 17
6:00 PM
Mon, Jan 17
7:00 PM
Mon, Jan 17
8:00 PM
Mon, Jan 17
9:00 PM
Mon, Jan 17
10:00 PM
Mon, Jan 17
11:00 PM
Tue, Jan 18
12:00 AM
Tue, Jan 18
1:00 AM
Tue, Jan 18
2:00 AM
Tue, Jan 18
3:00 AM
Tue, Jan 18
4:00 AM
Tue, Jan 18
5:00 AM
Tue, Jan 18
6:00 AM
Tue, Jan 18
7:00 AM
Tue, Jan 18
8:00 AM
Tue, Jan 18
9:00 AM
Tue, Jan 18
10:00 AM
Tue, Jan 18
11:00 AM
Tue, Jan 18
12:00 PM
Tue, Jan 18
1:00 PM
Tue, Jan 18
2:00 PM
Tue, Jan 18
3:00 PM
Tue, Jan 18
4:00 PM
Tue, Jan 18
5:00 PM
Tue, Jan 18
6:00 PM
Tue, Jan 18
7:00 PM
Tue, Jan 18
8:00 PM
Tue, Jan 18
9:00 PM
Tue, Jan 18
10:00 PM
Tue, Jan 18
11:00 PM
Wed, Jan 19
12:00 AM
Wed, Jan 19
1:00 AM
Wed, Jan 19
2:00 AM
Wed, Jan 19
3:00 AM
Wed, Jan 19
4:00 AM
Condition
Clouds

Clouds

Clouds

Clouds

Clouds

Clouds

Clouds

Clouds

Clouds

Clouds

Clouds

Clouds

Clouds

Clouds

Clouds

Clouds

Clouds

Clouds

Clear

Clear

Clear

Clear

Clear

Clear

Clear

Clear

Clear

Clear

Clear

Clear

Clear

Clear

Clear

Clear

Clear

Clouds

Clouds

Clouds

Clouds

Clouds

Clouds

Clouds

Clouds

Clouds

Clouds

Clear

Clear

Clear
Temperature 34°F35°F34°F34°F34°F35°F37°F38°F39°F39°F39°F38°F37°F35°F34°F34°F33°F33°F32°F31°F31°F30°F29°F28°F28°F28°F28°F29°F34°F39°F43°F47°F49°F50°F51°F50°F48°F42°F40°F40°F39°F38°F37°F37°F36°F35°F35°F35°F
Feels Like 25°F26°F25°F25°F25°F26°F28°F29°F30°F31°F31°F30°F29°F27°F25°F25°F25°F24°F24°F23°F23°F23°F23°F22°F22°F22°F23°F24°F29°F35°F40°F44°F47°F48°F48°F48°F48°F42°F40°F40°F37°F36°F35°F34°F33°F32°F32°F32°F
Cloudiness 72%75%68%76%83%89%94%95%96%100%96%92%92%88%76%17%14%11%10%9%9%6%6%6%6%6%6%6%6%6%4%3%3%0%3%21%19%28%39%100%98%86%67%55%47%3%4%3%
Visibility 6 mi6 mi6 mi6 mi6 mi6 mi6 mi6 mi6 mi6 mi6 mi6 mi6 mi6 mi6 mi6 mi6 mi6 mi6 mi6 mi6 mi6 mi6 mi6 mi6 mi6 mi6 mi6 mi6 mi6 mi6 mi6 mi6 mi6 mi6 mi6 mi6 mi6 mi6 mi6 mi6 mi6 mi6 mi6 mi6 mi6 mi6 mi6 mi
Precipitation 0%0%0%0%0%0%0%0%0%0%0%0%0%0%0%0%0%0%0%0%0%0%0%0%0%0%0%0%0%0%0%0%0%0%0%0%0%0%0%0%0%0%0%0%0%0%0%0%
Humidity 83%81%83%84%85%85%83%80%80%79%79%79%80%82%85%83%82%83%84%86%87%87%90%94%95%95%95%95%81%69%62%58%55%54%55%58%72%79%81%81%81%81%80%80%82%83%84%85%
Dew Point 30°F30°F30°F30°F30°F31°F32°F32°F33°F33°F33°F32°F31°F30°F30°F29°F28°F28°F28°F28°F27°F27°F27°F27°F27°F27°F27°F27°F29°F30°F31°F32°F34°F34°F35°F36°F39°F35°F35°F34°F33°F32°F31°F31°F31°F31°F31°F30°F
Pressure 29.74"29.74"29.77"29.8"29.8"29.85"29.88"29.91"29.88"29.88"29.91"29.94"29.97"29.97"30.03"30.06"30.09"30.09"30.12"30.12"30.12"30.12"30.12"30.12"30.15"30.15"30.18"30.21"30.21"30.21"30.21"30.21"30.18"30.18"30.15"30.15"30.18"30.18"30.21"30.24"30.24"30.24"30.24"30.24"30.24"30.24"30.24"30.24"
Wind Speed 13.1 mph12.8 mph13.5 mph13.6 mph12.5 mph12.6 mph13.8 mph15 mph14.5 mph14.1 mph14.2 mph13.7 mph12.8 mph12 mph11.5 mph11.3 mph11.2 mph10.8 mph10.3 mph9.9 mph8.9 mph7.8 mph6.4 mph5.4 mph5.6 mph5.6 mph4.9 mph4 mph5.7 mph5.5 mph5 mph4.9 mph5.1 mph5.4 mph5 mph4 mph2.3 mph0.9 mph1.2 mph2.2 mph3.1 mph3.1 mph3.2 mph3.5 mph3.7 mph3.9 mph3.6 mph3.6 mph
Wind
Direction
268°
W
270°
W
275°
W
277°
W
274°
W
274°
W
280°
W
280°
W
276°
W
281°
W
285°
WNW
285°
WNW
286°
WNW
285°
WNW
287°
WNW
288°
WNW
287°
WNW
286°
WNW
287°
WNW
288°
WNW
288°
WNW
288°
WNW
285°
WNW
276°
W
265°
W
274°
W
280°
W
284°
WNW
299°
WNW
304°
NW
301°
WNW
297°
WNW
280°
W
280°
W
281°
W
281°
W
306°
NW
358°
N
107°
ESE
156°
SSE
160°
SSE
180°
S
189°
S
209°
SSW
212°
SSW
206°
SSW
211°
SSW
227°
SW

Daily Forecast

Date High Low Precip. Humidity
Today
Jan 17

Clouds
39 °F
32 °F
4%
80%
Tuesday
Jan 18

Clear
51 °F
28 °F
0%
58%
Wednesday
Jan 19

Clouds
55 °F
34 °F
0%
51%
Thursday
Jan 20

Rain
53 °F
42 °F
100%
71%
Friday
Jan 21

Snow
39 °F
28 °F
92%
94%
Saturday
Jan 22

Clouds
37 °F
18 °F
0%
69%
Sunday
Jan 23

Clouds
48 °F
23 °F
0%
62%
Monday
Jan 24

Clouds
49 °F
30 °F
0%
58%
Tuesday
Jan 25

Rain
49 °F
34 °F
100%
68%
Wednesday
Jan 26

Rain
47 °F
31 °F
100%
84%
Thursday
Jan 27

Clear
45 °F
27 °F
0%
43%
Friday
Jan 28

Clouds
45 °F
30 °F
4%
42%
Saturday
Jan 29

Clear
50 °F
29 °F
0%
43%
Sunday
Jan 30

Clear
55 °F
31 °F
0%
44%
Monday
Jan 31

Rain
49 °F
39 °F
100%
83%
Tuesday
Feb 1

Rain
46 °F
45 °F
100%
87%

Temperature 8-14 Day Outlook



Precipitation 8-14 Day Outlook




Quick Links
Oconee Lake News
Oconee Lake Photos
Oconee Lake Videos




About Us
Contact Us
Site Map
Search Site
Advertise With Us
   
Oconee.USLakes.info
THE OCONEE LAKE WEBSITE

Copyright 2022, Lakes Online
Privacy    |    Legal